EW3937 Weather Reports


time (UTC)temp
C
wind
direction
speed
KPH
gust
KPH
rain 1hr
cm
rain 24hr
cm
rain mn
cm
humidity
%
barometer
mb
20260503054717 7 0 1.6 1.6 0.00 0.00 0.00 81 1014.7
20260503054003 8 0 1.6 1.6 0.00 0.00 0.00 81 1014.8
20260503053717 8 0 0.0 0.0 0.00 0.00 0.00 81 1014.7
20260503053003 8 0 0.0 0.0 0.00 0.00 0.00 81 1014.8
20260503052717 8 0 1.6 1.6 0.00 0.00 0.00 81 1014.8
20260503052218 8 0 1.6 1.6 0.00 0.00 0.00 82 1014.8
20260503051503 8 0 1.6 1.6 0.00 0.00 0.00 80 1014.8
20260503051003 8 0 3.2 3.2 0.00 0.00 0.00 79 1014.8
20260503050503 8 0 3.2 3.2 0.00 0.00 0.00 79 1014.8
20260503050003 8 0 0.0 1.6 0.00 0.00 0.00 79 1014.8
20260503045503 8 141 0.0 3.2 0.00 0.00 0.00 79 1014.8
20260503045003 8 141 0.0 3.2 0.00 0.00 0.00 79 1014.7
20260503044503 8 141 0.0 1.6 0.00 0.00 0.00 77 1014.7
20260503044219 9 141 0.0 1.6 0.00 0.00 0.00 77 1014.7
20260503043503 9 0 0.0 3.2 0.00 0.00 0.00 75 1014.7
20260503043003 10 142 0.0 3.2 0.00 0.00 0.00 74 1014.7
20260503042503 10 143 1.6 3.2 0.00 0.00 0.00 73 1014.6
20260503042003 11 142 1.6 3.2 0.00 0.00 0.00 72 1014.5
20260503041503 11 142 1.6 3.2 0.00 0.00 0.00 71 1014.5
20260503041003 11 142 1.6 3.2 0.00 0.00 0.00 71 1014.5
20260503040503 11 144 1.6 4.8 0.00 0.00 0.00 71 1014.5
20260503040004 11 145 0.0 4.8 0.00 0.00 0.00 71 1014.5
20260503035503 11 0 0.0 3.2 0.00 0.00 0.00 70 1014.5
20260503035218 11 0 0.0 3.2 0.00 0.00 0.00 70 1014.4
20260503034503 12 0 0.0 4.8 0.00 0.00 0.00 68 1014.3
20260503034003 12 0 0.0 4.8 0.00 0.00 0.00 68 1014.2
20260503033503 13 0 0.0 3.2 0.00 0.00 0.00 65 1014.2
20260503033004 13 0 0.0 3.2 0.00 0.00 0.00 64 1014.2
20260503032503 14 0 0.0 1.6 0.00 0.00 0.00 62 1014.1
20260503032217 15 0 3.2 3.2 0.00 0.00 0.00 62 1014.0
20260503031503 15 144 0.0 3.2 0.00 0.00 0.00 60 1013.9
20260503031003 16 0 0.0 3.2 0.00 0.00 0.00 58 1013.9
20260503030503 16 0 0.0 3.2 0.00 0.00 0.00 56 1013.9
20260503030003 17 0 0.0 1.6 0.00 0.00 0.00 53 1013.9
20260503025503 18 0 0.0 0.0 0.00 0.00 0.00 52 1013.9
20260503025003 18 0 0.0 0.0 0.00 0.00 0.00 50 1013.9
20260503024503 19 0 0.0 0.0 0.00 0.00 0.00 47 1013.9
20260503024003 20 0 0.0 1.6 0.00 0.00 0.00 47 1013.8
20260503023503 20 0 0.0 1.6 0.00 0.00 0.00 44 1013.8
20260503023003 20 0 0.0 0.0 0.00 0.00 0.00 42 1013.7
20260503022503 21 0 0.0 1.6 0.00 0.00 0.00 42 1013.7
20260503022217 21 0 0.0 1.6 0.00 0.00 0.00 42 1013.7
20260503021503 21 346 1.6 3.2 0.00 0.00 0.00 41 1013.7
20260503021003 21 351 1.6 6.4 0.00 0.00 0.00 40 1013.7
20260503020503 21 345 1.6 6.4 0.00 0.00 0.00 39 1013.7
20260503020003 22 339 1.6 6.4 0.00 0.00 0.00 38 1013.7
20260503015503 22 336 1.6 6.4 0.00 0.00 0.00 37 1013.7
20260503015003 22 343 1.6 4.8 0.00 0.00 0.00 37 1013.7
20260503014503 22 349 3.2 6.4 0.00 0.00 0.00 36 1013.7
20260503014003 22 351 1.6 8.0 0.00 0.00 0.00 33 1013.7
20260503013503 23 348 1.6 8.0 0.00 0.00 0.00 34 1013.7
20260503013003 23 339 0.0 6.4 0.00 0.00 0.00 32 1013.7
20260503012503 23 0 0.0 1.6 0.00 0.00 0.00 33 1013.7
20260503012003 23 0 0.0 1.6 0.00 0.00 0.00 32 1013.7
20260503011503 23 0 0.0 3.2 0.00 0.00 0.00 33 1013.7
20260503011003 23 0 0.0 3.2 0.00 0.00 0.00 32 1013.7
20260503010718 23 0 0.0 1.6 0.00 0.00 0.00 31 1013.7
20260503010003 24 0 0.0 3.2 0.00 0.00 0.00 32 1013.8
20260503005503 24 228 0.0 3.2 0.00 0.00 0.00 31 1013.8
20260503005003 25 319 0.0 3.2 0.00 0.00 0.00 29 1013.8
20260503004503 25 318 0.0 3.2 0.00 0.00 0.00 28 1013.8
20260503004003 26 0 0.0 3.2 0.00 0.00 0.00 28 1013.7
20260503003503 26 268 0.0 1.6 0.00 0.00 0.00 26 1013.8
20260503003003 25 337 1.6 3.2 0.00 0.00 0.00 28 1013.8
20260503002503 25 331 1.6 4.8 0.00 0.00 0.00 28 1013.8
20260503002003 25 330 0.0 4.8 0.00 0.00 0.00 27 1013.9
20260503001503 25 0 0.0 3.2 0.00 0.00 0.00 31 1013.9
20260503001003 25 1 0.0 3.2 0.00 0.00 0.00 27 1013.9
20260503000503 25 7 1.6 3.2 0.00 0.00 0.00 26 1013.9
20260503000003 25 65 1.6 4.8 0.00 0.00 0.00 31 1013.9
20260502235503 25 58 1.6 4.8 0.00 0.00 0.00 33 1014.0
20260502235003 25 344 1.6 6.4 0.00 0.00 0.00 28 1014.0
20260502234503 25 314 1.6 6.4 0.00 0.00 0.00 25 1014.0
20260502234003 25 299 1.6 4.8 0.00 0.00 0.00 27 1014.1
20260502233503 25 55 1.6 4.8 0.00 0.00 0.00 28 1014.1
20260502233003 25 64 1.6 6.4 0.00 0.00 0.00 25 1014.2
20260502232505 25 158 1.6 6.4 0.00 0.00 0.00 29 1014.2
20260502232218 26 188 0.0 6.4 0.00 0.00 0.00 30 1014.3
20260502231503 25 82 0.0 6.4 0.00 0.00 0.00 28 1014.4
20260502231003 25 36 1.6 3.2 0.00 0.00 0.00 30 1014.3
20260502230503 25 27 1.6 4.8 0.00 0.00 0.00 28 1014.3
20260502230003 25 44 1.6 6.4 0.00 0.00 0.00 30 1014.5
20260502225503 25 53 1.6 6.4 0.00 0.00 0.00 30 1014.5
20260502225218 25 72 1.6 6.4 0.00 0.00 0.00 30 1014.6
20260502224503 26 129 1.6 4.8 0.00 0.00 0.00 30 1014.6
20260502224003 25 154 1.6 4.8 0.00 0.00 0.00 26 1014.6
20260502223503 25 102 1.6 6.4 0.00 0.00 0.00 25 1014.7
20260502223003 25 49 1.6 6.4 0.00 0.00 0.00 26 1014.8
20260502222503 25 50 1.6 6.4 0.00 0.00 0.00 28 1014.9
20260502222003 25 55 3.2 6.4 0.00 0.00 0.00 26 1014.9
20260502221503 25 70 1.6 6.4 0.00 0.00 0.00 29 1014.9
20260502221003 25 73 1.6 8.0 0.00 0.00 0.00 31 1015.0
20260502220503 25 72 1.6 8.0 0.00 0.00 0.00 26 1015.0
20260502220003 25 103 1.6 8.0 0.00 0.00 0.00 25 1015.1
20260502215503 25 85 1.6 8.0 0.00 0.00 0.00 27 1015.2
20260502215003 25 50 1.6 4.8 0.00 0.00 0.00 26 1015.2
20260502214503 25 8 1.6 4.8 0.00 0.00 0.00 28 1015.3
20260502214003 25 1 1.6 4.8 0.00 0.00 0.00 26 1015.3
20260502213503 25 34 1.6 6.4 0.00 0.00 0.00 28 1015.3
20260502213217 25 35 1.6 6.4 0.00 0.00 0.00 27 1015.4
20260502212503 25 68 1.6 9.7 0.00 0.00 0.00 27 1015.4
20260502212004 25 71 1.6 9.7 0.00 0.00 0.00 27 1015.4
20260502211503 25 59 0.0 4.8 0.00 0.00 0.00 25 1015.5
20260502211003 25 50 0.0 4.8 0.00 0.00 0.00 26 1015.6
20260502210503 25 357 1.6 3.2 0.00 0.00 0.00 26 1015.5
20260502210003 25 27 1.6 4.8 0.00 0.00 0.00 25 1015.6
20260502205503 25 46 1.6 8.0 0.00 0.00 0.00 29 1015.6
20260502205003 25 56 1.6 8.0 0.00 0.00 0.00 31 1015.6
20260502204718 25 67 1.6 6.4 0.00 0.00 0.00 27 1015.6
20260502204003 24 49 1.6 6.4 0.00 0.00 0.00 27 1015.7
20260502203503 24 47 1.6 6.4 0.00 0.00 0.00 27 1015.7
20260502203003 24 53 1.6 6.4 0.00 0.00 0.00 32 1015.8
20260502202718 24 53 1.6 6.4 0.00 0.00 0.00 29 1015.8
20260502202003 24 39 1.6 6.4 0.00 0.00 0.00 32 1015.8
20260502201503 24 29 1.6 6.4 0.00 0.00 0.00 34 1015.8
20260502201003 23 40 1.6 9.7 0.00 0.00 0.00 33 1016.0
20260502200503 23 46 1.6 9.7 0.00 0.00 0.00 34 1016.0
20260502200003 24 46 1.6 4.8 0.00 0.00 0.00 35 1016.0
20260502195503 24 49 1.6 3.2 0.00 0.00 0.00 35 1016.1
20260502195003 23 65 1.6 6.4 0.00 0.00 0.00 35 1016.0
20260502194503 23 78 1.6 11.3 0.00 0.00 0.00 39 1016.0
20260502194003 23 79 1.6 11.3 0.00 0.00 0.00 35 1016.0
20260502193503 23 73 1.6 9.7 0.00 0.00 0.00 36 1016.1
20260502193003 23 53 1.6 6.4 0.00 0.00 0.00 35 1016.1
20260502192503 23 44 1.6 6.4 0.00 0.00 0.00 36 1016.2
20260502192003 23 69 1.6 6.4 0.00 0.00 0.00 41 1016.2
20260502191503 23 66 1.6 6.4 0.00 0.00 0.00 36 1016.2
20260502191003 23 61 1.6 8.0 0.00 0.00 0.00 39 1016.3
20260502190509 23 39 1.6 9.7 0.00 0.00 0.00 43 1016.3
20260502190004 23 28 1.6 9.7 0.00 0.00 0.00 37 1016.4
20260502185717 23 30 1.6 3.2 0.00 0.00 0.00 40 1016.3
20260502185003 22 47 1.6 4.8 0.00 0.00 0.00 41 1016.5
20260502184717 22 52 1.6 4.8 0.00 0.00 0.00 43 1016.5
20260502184003 22 57 1.6 8.0 0.00 0.00 0.00 47 1016.5
20260502183503 22 81 3.2 9.7 0.00 0.00 0.00 44 1016.5
20260502183003 21 66 3.2 9.7 0.00 0.00 0.00 46 1016.5
20260502182003 21 50 1.6 11.3 0.00 0.00 0.00 46 1016.6
20260502181503 21 55 3.2 6.4 0.00 0.00 0.00 46 1016.6
20260502181218 21 58 3.2 6.4 0.00 0.00 0.00 48 1016.6
20260502180503 21 79 3.2 9.7 0.00 0.00 0.00 47 1016.6
20260502170503 18 39 1.6 8.0 0.00 0.00 0.00 52 1016.8
20260502164003 17 53 3.2 11.3 0.00 0.00 0.00 53 1016.7
20260502163503 17 52 1.6 11.3 0.00 0.00 0.00 55 1016.8
20260502163003 17 34 1.6 8.0 0.00 0.00 0.00 54 1016.8
20260502162503 17 340 1.6 4.8 0.00 0.00 0.00 55 1016.8
20260502162217 17 334 1.6 4.8 0.00 0.00 0.00 52 1016.8
20260502161503 17 37 1.6 8.0 0.00 0.00 0.00 57 1016.8
20260502161003 17 39 1.6 9.7 0.00 0.00 0.00 54 1016.8
20260502160503 17 30 1.6 9.7 0.00 0.00 0.00 56 1016.9
20260502152003 15 250 0.0 3.2 0.00 0.00 0.00 62 1016.7
20260502151503 15 269 1.6 6.4 0.00 0.00 0.00 64 1016.6
20260502151217 15 316 1.6 8.0 0.00 0.00 0.00 63 1016.7
20260502150503 15 347 0.0 8.0 0.00 0.00 0.00 63 1016.7
20260502130717 6 0 3.2 3.2 0.00 0.00 0.00 80 1016.4
20260502123717 7 120 0.0 3.2 0.00 0.00 0.00 80 1016.3
20260502123003 7 148 1.6 3.2 0.00 0.00 0.00 81 1016.3
20260502122717 7 150 0.0 6.4 0.00 0.00 0.00 80 1016.2
20260502122003 7 0 0.0 6.4 0.00 0.00 0.00 78 1016.3
20260502121503 7 0 0.0 1.6 0.00 0.00 0.00 78 1016.3
20260502121218 7 0 0.0 1.6 0.00 0.00 0.00 79 1016.3
20260502120503 7 0 0.0 1.6 0.00 0.00 0.00 81 1016.2
20260502120218 7 0 0.0 1.6 0.00 0.00 0.00 81 1016.2
20260502115503 7 0 0.0 1.6 0.00 0.00 0.00 81 1016.3
20260502115218 7 0 0.0 1.6 0.00 0.00 0.00 81 1016.2
20260502114503 7 0 0.0 1.6 0.00 0.00 0.00 82 1016.2
20260502114003 7 0 0.0 3.2 0.00 0.00 0.00 82 1016.3
20260502113503 6 0 0.0 3.2 0.00 0.00 0.00 83 1016.3
20260502113003 6 0 0.0 1.6 0.00 0.00 0.00 84 1016.3
20260502112503 6 0 0.0 1.6 0.00 0.00 0.00 84 1016.3
20260502112003 6 110 0.0 1.6 0.00 0.00 0.00 83 1016.3
20260502111503 7 110 1.6 1.6 0.00 0.00 0.00 81 1016.3
20260502111003 7 105 0.0 4.8 0.00 0.00 0.00 80 1016.2
20260502110503 7 0 4.8 4.8 0.00 0.00 0.00 80 1016.3
20260502110004 7 0 1.6 1.6 0.00 0.00 0.00 82 1016.3
20260502105503 7 0 1.6 1.6 0.00 0.00 0.00 81 1016.3
20260502105003 7 0 0.0 3.2 0.00 0.00 0.00 79 1016.4
20260502104503 8 0 0.0 3.2 0.00 0.00 0.00 79 1016.4
20260502104003 8 0 0.0 3.2 0.00 0.00 0.00 78 1016.4
20260502103503 8 0 0.0 3.2 0.00 0.00 0.00 78 1016.3
20260502103003 7 0 0.0 3.2 0.00 0.00 0.00 80 1016.4
20260502102503 7 0 0.0 3.2 0.00 0.00 0.00 82 1016.4
20260502102003 7 0 0.0 3.2 0.00 0.00 0.00 84 1016.3
20260502101503 6 0 0.0 3.2 0.00 0.00 0.00 84 1016.3
20260502101217 7 0 0.0 3.2 0.00 0.00 0.00 83 1016.3
20260502100503 7 0 0.0 3.2 0.00 0.00 0.00 83 1016.2
20260502091503 7 0 0.0 0.0 0.00 0.00 0.00 85 1016.4
20260502091003 6 0 0.0 0.0 0.00 0.00 0.00 86 1016.3
20260502090503 6 0 0.0 0.0 0.00 0.00 0.00 86 1016.3
20260502071503 6 0 0.0 0.0 0.00 0.00 0.00 85 1016.5
20260502071003 7 0 0.0 0.0 0.00 0.00 0.00 85 1016.5
20260502070503 7 0 0.0 0.0 0.00 0.00 0.00 85 1016.5